Location: Fort Wayne
(41.1310°N, 85.1290°W)
Time: 09:49:01
(UTC-04:00)

Amateur Radio Satellites - All Passes

Search period start: 23 July 2014 09:19
Search period end: 24 July 2014 09:19
Location: Fort Wayne, 41.1310°N, 85.1290°W

Satellite Date Start Highest point End Downlink Frequencies (MHz)
Time Altitude Azimuth
KITSAT 1 23 Jul 09:34:34 09:42:22 50° 309° (NW) 09:50:13 435.175 FM
MaSat-1 23 Jul 09:57:06 10:01:58 36° 253° (WSW) 10:06:37 437.345 MHz
PANSAT 23 Jul 09:59:31 10:01:05 12° 176° (S) 10:02:39 not established
Saudisat 1A 23 Jul 10:09:46 10:14:10 73° 121° (ESE) 10:18:36 436.775 MHz
Oscar 11 23 Jul 10:14:33 10:15:44 11° 90° (E) 10:16:55 145.825 FM, Beacon 2401.500 USB
ISS 23 Jul 10:14:42 10:17:29 24° 226° (SW) 10:20:14 145.800 FM
HO-68 23 Jul 10:49:11 10:56:20 71° 104° (ESE) 11:03:26 435.675 MHz FM
Sapphire 23 Jul 10:51:37 10:55:26 19° 44° (NE) 10:59:13 437.095 MHz 1200 baud AX-25 AFSK
UKube-1 23 Jul 10:55:49 11:00:10 66° 102° (ESE) 11:04:29 145.840 MHz, 145.915 MHz
PCSat 23 Jul 11:25:06 11:30:01 34° 51° (NE) 11:34:54 145.825 MHz
KITSAT 1 23 Jul 11:35:15 11:40:00 16° 334° (NNW) 11:44:45 435.175 FM
PANSAT 23 Jul 11:39:45 11:40:29 10° 189° (S) 11:41:14 not established
Oscar 11 23 Jul 11:48:03 11:52:20 64° 285° (WNW) 11:56:37 145.825 FM, Beacon 2401.500 USB
Saudisat 1A 23 Jul 11:51:28 11:54:15 16° 319° (NW) 11:57:03 436.775 MHz
FUNcube-1 23 Jul 11:51:48 11:55:50 48° 99° (E) 11:59:52 145.950 - 145.970 MHz USB
UKube-1 23 Jul 12:33:59 12:35:49 13° 298° (WNW) 12:37:38 145.840 MHz, 145.915 MHz
Sapphire 23 Jul 12:34:02 12:39:28 77° 243° (WSW) 12:44:51 437.095 MHz 1200 baud AX-25 AFSK
HO-68 23 Jul 12:37:59 12:43:23 24° 302° (WNW) 12:48:45 435.675 MHz FM
Oscar 16 23 Jul 12:50:00 12:51:48 12° 58° (ENE) 12:53:36 437.025 USB, Beacon 2401.1428
PCSat 23 Jul 13:08:30 13:13:26 36° 249° (WSW) 13:18:20 145.825 MHz
Uribyol 2 23 Jul 13:19:31 13:20:45 11° 57° (ENE) 13:21:58 436.500 FM
AO-Echo 23 Jul 13:27:46 13:30:03 13° 59° (ENE) 13:32:21 ?
FUNcube-1 23 Jul 13:29:34 13:31:51 15° 296° (WNW) 13:34:08 145.950 - 145.970 MHz USB
KITSAT 1 23 Jul 13:37:59 13:39:43 11° 6° (N) 13:41:27 435.175 FM
Oscar 19 23 Jul 13:58:15 14:03:08 48° 71° (ENE) 14:08:02 437.125 CW, 437.150 USB
JAS-1B 23 Jul 14:06:47 14:13:59 30° 56° (ENE) 14:21:51 435.800 - 435.900 CW/SSB
TMSAT-1 23 Jul 14:21:53 14:23:42 12° 58° (ENE) 14:25:32 436.925 FM
RS-15 23 Jul 14:23:16 14:33:06 38° 107° (ESE) 14:42:43 29.354 - 29.394 USB, Beacon 29.352 USB
Oscar 16 23 Jul 14:25:15 14:30:22 90° 76° (ENE) 14:35:31 437.025 USB, Beacon 2401.1428
ITAMSAT 1 23 Jul 14:33:19 14:38:19 49° 71° (ENE) 14:43:20 435.822 SSB
Gurwin Techsat 1B 23 Jul 14:39:29 14:43:37 24° 64° (ENE) 14:47:46 435.225 FM
AO-27 23 Jul 14:50:38 14:55:50 72° 74° (ENE) 15:01:03 436.795 MHz FM
Uribyol 2 23 Jul 14:54:09 14:59:22 80° 75° (ENE) 15:04:35 436.500 FM
AO-Echo 23 Jul 15:02:45 15:08:01 89° 253° (WSW) 15:13:23 ?
SO-50 23 Jul 15:12:04 15:16:32 88° 302° (WNW) 15:21:06 436.795 FM
KITSAT 1 23 Jul 15:32:40 15:38:52 23° 36° (NE) 15:45:02 435.175 FM
Oscar 19 23 Jul 15:39:01 15:42:43 20° 267° (W) 15:46:27 437.125 CW, 437.150 USB
JAS-1B 23 Jul 15:55:04 16:03:27 75° 258° (WSW) 16:13:11 435.800 - 435.900 CW/SSB
TMSAT-1 23 Jul 15:57:29 16:02:47 85° 75° (ENE) 16:08:07 436.925 FM
AO-7 23 Jul 16:05:15 16:12:52 41° 61° (ENE) 16:20:29 29.400 - 29.500 MHz
UOSAT-12 23 Jul 16:07:46 16:11:31 25° 112° (ESE) 16:15:20 437.025 FM, 437.400 FM
ITAMSAT 1 23 Jul 16:14:13 16:18:03 21° 267° (W) 16:21:54 435.822 SSB
Gurwin Techsat 1B 23 Jul 16:18:12 16:23:17 46° 261° (W) 16:28:24 435.225 FM
AO-27 23 Jul 16:33:17 16:35:51 14° 270° (W) 16:38:26 436.795 MHz FM
RS-15 23 Jul 16:33:52 16:44:51 63° 309° (NW) 16:55:42 29.354 - 29.394 USB, Beacon 29.352 USB
Uribyol 2 23 Jul 16:37:32 16:39:25 12° 271° (W) 16:41:18 436.500 FM
AO-Echo 23 Jul 16:46:25 16:47:28 11° 273° (W) 16:48:32 ?
Uosat F 23 Jul 16:54:41 16:59:42 72° 74° (ENE) 17:04:45 435.120 FM
SO-50 23 Jul 16:55:24 16:57:48 14° 322° (NW) 17:00:14 436.795 FM
OPAL 23 Jul 17:24:54 17:29:45 45° 102° (ESE) 17:34:37 ?
KITSAT 1 23 Jul 17:27:27 17:35:35 81° 59° (ENE) 17:43:39 435.175 FM
JAS-2 23 Jul 17:28:44 17:33:59 20° 58° (ENE) 17:39:05 435.800 - 435.900 CW/SSB, 435.910 FM
TMSAT-1 23 Jul 17:41:46 17:43:21 11° 272° (W) 17:44:58 436.925 FM
UOSAT-12 23 Jul 17:47:10 17:51:28 38° 310° (NW) 17:55:53 437.025 FM, 437.400 FM
JAS-1B 23 Jul 17:51:01 17:55:42 15° 279° (W) 18:00:41 435.800 - 435.900 CW/SSB
AO-7 23 Jul 17:57:32 18:05:29 47° 259° (W) 18:13:30 29.400 - 29.500 MHz
Hamsat 23 Jul 18:27:31 18:31:26 42° 72° (ENE) 18:35:24 145.90 MHz
Saudisat 1A 23 Jul 18:36:40 18:41:01 56° 54° (NE) 18:45:20 436.775 MHz
Uosat F 23 Jul 18:36:43 18:39:00 13° 270° (W) 18:41:17 435.120 FM
RS-15 23 Jul 18:51:30 18:59:59 25° 338° (NNW) 19:08:29 29.354 - 29.394 USB, Beacon 29.352 USB
Oscar 10/S400 23 Jul 18:56:32 19:06:51 15° 141° (SE) 19:17:33 145.825 - 145.975 CW/USB, Beacon 145.810 USB
OPAL 23 Jul 19:04:28 19:08:20 23° 298° (WNW) 19:12:13 ?
JAS-2 23 Jul 19:10:12 19:18:06 89° 75° (ENE) 19:25:42 435.800 - 435.900 CW/SSB, 435.910 FM
KITSAT 1 23 Jul 19:24:24 19:30:01 21° 257° (WSW) 19:35:39 435.175 FM
HO-68 23 Jul 19:37:22 19:38:08 10° 47° (NE) 19:38:54 435.675 MHz FM
STRAND 1 23 Jul 19:38:41 19:42:50 25° 95° (E) 19:46:56 ?
SO-67 23 Jul 19:49:52 19:53:15 52° 75° (ENE) 19:56:39 435.3500 MHz FM
Hamsat 23 Jul 20:05:06 20:07:37 16° 268° (W) 20:10:09 145.90 MHz
Saudisat 1A 23 Jul 20:17:36 20:20:08 15° 251° (WSW) 20:22:40 436.775 MHz
JAS-2 23 Jul 20:58:44 21:03:48 18° 272° (W) 21:08:49 435.800 - 435.900 CW/SSB, 435.910 FM
RS-15 23 Jul 21:09:43 21:17:43 22° 15° (NNE) 21:25:48 29.354 - 29.394 USB, Beacon 29.352 USB
HO-68 23 Jul 21:17:20 21:24:14 53° 67° (ENE) 21:31:09 435.675 MHz FM
STRAND 1 23 Jul 21:17:23 21:22:07 39° 291° (WNW) 21:26:49 ?
UKube-1 23 Jul 21:51:08 21:55:24 56° 73° (ENE) 21:59:42 145.840 MHz, 145.915 MHz
SO-50 23 Jul 22:04:36 22:07:07 14° 38° (NE) 22:09:39 436.795 FM
Oscar 11 23 Jul 22:42:45 22:47:03 84° 257° (WSW) 22:51:23 145.825 FM, Beacon 2401.500 USB
FUNcube-1 23 Jul 22:48:10 22:52:15 40° 72° (ENE) 22:56:17 145.950 - 145.970 MHz USB
HO-68 23 Jul 23:06:05 23:12:11 30° 265° (W) 23:18:19 435.675 MHz FM
RS-15 23 Jul 23:22:54 23:33:34 51° 46° (NE) 23:44:31 29.354 - 29.394 USB, Beacon 29.352 USB
UKube-1 23 Jul 23:29:57 23:31:57 13° 269° (W) 23:33:58 145.840 MHz, 145.915 MHz
SO-50 23 Jul 23:43:40 23:48:26 81° 57° (ENE) 23:53:15 436.795 FM
MaSat-1 23 Jul 23:48:16 23:52:08 69° 298° (WNW) 23:56:44 437.345 MHz
FUNcube-1 24 Jul 00:25:48 00:28:48 18° 267° (W) 00:31:46 145.950 - 145.970 MHz USB
UOSAT-12 24 Jul 00:36:54 00:40:50 25° 45° (NE) 00:44:45 437.025 FM, 437.400 FM
Lituanica SAT-1 24 Jul 01:17:38 01:19:45 81° 325° (NW) 01:21:54 437.275 MHz beacon
ISS 24 Jul 01:21:49 01:23:26 13° 130° (SE) 01:25:04 145.800 FM
SO-50 24 Jul 01:26:37 01:28:22 12° 253° (WSW) 01:30:07 436.795 FM
RS-15 24 Jul 01:35:29 01:45:57 51° 249° (WSW) 01:56:49 29.354 - 29.394 USB, Beacon 29.352 USB
Sapphire 24 Jul 01:35:42 01:38:13 13° 103° (ESE) 01:40:45 437.095 MHz 1200 baud AX-25 AFSK
PCSat 24 Jul 02:07:16 02:11:51 29° 109° (ESE) 02:16:28 145.825 MHz
Oscar 19 24 Jul 02:10:59 02:14:17 17° 92° (E) 02:17:35 437.125 CW, 437.150 USB
UOSAT-12 24 Jul 02:16:41 02:21:10 44° 244° (WSW) 02:25:35 437.025 FM, 437.400 FM
Oscar 16 24 Jul 02:37:22 02:41:58 32° 96° (E) 02:46:32 437.025 USB, Beacon 2401.1428
ITAMSAT 1 24 Jul 02:47:27 02:50:47 17° 92° (E) 02:54:07 435.822 SSB
Lituanica SAT-1 24 Jul 02:52:23 02:52:54 11° 342° (NNW) 02:53:25 437.275 MHz beacon
ISS 24 Jul 02:56:25 02:59:45 72° 325° (NW) 03:03:07 145.800 FM
AO-27 24 Jul 03:04:25 03:08:42 26° 95° (E) 03:12:57 436.795 MHz FM
OPAL 24 Jul 03:05:48 03:06:48 11° 55° (NE) 03:07:47 ?
Uribyol 2 24 Jul 03:07:32 03:11:58 28° 96° (E) 03:16:21 436.500 FM
AO-Echo 24 Jul 03:10:54 03:15:24 30° 95° (E) 03:19:45 ?
Sapphire 24 Jul 03:15:30 03:20:54 80° 300° (WNW) 03:26:21 437.095 MHz 1200 baud AX-25 AFSK
JAS-1B 24 Jul 03:41:55 03:50:56 43° 94° (E) 03:58:49 435.800 - 435.900 CW/SSB
Oscar 19 24 Jul 03:48:56 03:53:59 57° 288° (WNW) 03:59:02 437.125 CW, 437.150 USB
PCSat 24 Jul 03:50:01 03:55:06 40° 307° (NW) 04:00:13 145.825 MHz
TMSAT-1 24 Jul 04:13:46 04:18:34 34° 97° (E) 04:23:20 436.925 FM
Oscar 16 24 Jul 04:16:45 04:21:14 31° 293° (WNW) 04:25:44 437.025 USB, Beacon 2401.1428
ITAMSAT 1 24 Jul 04:25:34 04:30:39 57° 288° (WNW) 04:35:41 435.822 SSB
Gurwin Techsat 1B 24 Jul 04:34:11 04:39:31 73° 102° (ESE) 04:44:48 435.225 FM
ISS 24 Jul 04:34:31 04:36:58 18° 344° (NNW) 04:39:25 145.800 FM
OPAL 24 Jul 04:39:55 04:44:52 82° 73° (ENE) 04:49:50 ?
AO-27 24 Jul 04:43:31 04:48:19 39° 291° (WNW) 04:53:04 436.795 MHz FM
Uribyol 2 24 Jul 04:46:48 04:51:27 35° 292° (WNW) 04:56:04 436.500 FM
AO-Echo 24 Jul 04:49:35 04:54:08 32° 293° (WNW) 04:58:32 ?
Sapphire 24 Jul 05:02:10 05:05:13 15° 320° (NW) 05:08:16 437.095 MHz 1200 baud AX-25 AFSK
Uosat F 24 Jul 05:03:20 05:07:12 22° 94° (E) 05:11:01 435.120 FM
JAS-1B 24 Jul 05:32:17 05:41:27 50° 295° (WNW) 05:49:35 435.800 - 435.900 CW/SSB
TMSAT-1 24 Jul 05:53:49 05:58:23 30° 293° (WNW) 06:02:57 436.925 FM
AO-7 24 Jul 05:58:38 06:06:54 62° 104° (ESE) 06:15:04 29.400 - 29.500 MHz
Lituanica SAT-1 24 Jul 05:59:05 06:00:09 13° 21° (NNE) 06:01:13 437.275 MHz beacon
ISS 24 Jul 06:12:49 06:14:42 14° 5° (N) 06:16:35 145.800 FM
Gurwin Techsat 1B 24 Jul 06:15:49 06:18:51 16° 300° (WNW) 06:21:52 435.225 FM
OPAL 24 Jul 06:23:13 06:24:20 11° 269° (W) 06:25:28 ?
Uosat F 24 Jul 06:41:25 06:46:09 43° 290° (WNW) 06:50:51 435.120 FM
STRAND 1 24 Jul 06:54:24 06:59:04 36° 68° (ENE) 07:03:45 ?
JAS-1B 24 Jul 07:25:51 07:29:26 13° 317° (NW) 07:32:55 435.800 - 435.900 CW/SSB
Lituanica SAT-1 24 Jul 07:31:02 07:33:10 61° 218° (SW) 07:35:17 437.275 MHz beacon
Hamsat 24 Jul 07:48:45 07:53:03 90° 286° (WNW) 07:57:22 145.90 MHz
ISS 24 Jul 07:49:16 07:52:16 29° 25° (NNE) 07:55:15 145.800 FM
AO-7 24 Jul 07:52:08 07:59:10 32° 303° (WNW) 08:06:11 29.400 - 29.500 MHz
KITSAT 1 24 Jul 07:55:09 08:03:01 58° 114° (ESE) 08:10:55 435.175 FM
JAS-2 24 Jul 08:06:30 08:12:48 82° 103° (ESE) 08:18:21 435.800 - 435.900 CW/SSB, 435.910 FM
MaSat-1 24 Jul 08:06:36 08:11:26 33° 55° (NE) 08:16:07 437.345 MHz
STRAND 1 24 Jul 08:33:57 08:38:17 27° 265° (W) 08:42:39 ?
Saudisat 1A 24 Jul 08:45:06 08:47:31 15° 109° (ESE) 08:49:56 436.775 MHz
SO-67 24 Jul 08:46:44 08:50:13 66° 101° (E) 08:53:39 435.3500 MHz FM
